Location: Newark
(3.0500°N, 36.0167°E)
Time: 13:12:35
(UTC+00:00)

deb Explorer IX - Visible Passes

Search period start: 23 August 2019 00:00
Search period end: 02 September 2019 00:00
Orbit: 540 x 1111 km, 38.8° (Epoch: 22 August)

Date Brightness Start Highest point End Pass type
(mag) Time Alt. Az. Time Alt. Az. Time Alt. Az.
23 Aug ? 16:20:29 10° NNW 16:25:52 22° NE 16:30:19 12° E visible
23 Aug ? 18:06:25 10° NW 18:11:42 51° WNW 18:11:42 51° WNW visible
24 Aug ? 15:58:14 10° NNW 16:03:45 23° NE 16:09:05 10° E visible
24 Aug ? 17:44:12 10° NW 17:51:17 81° WSW 17:51:17 81° WSW visible
25 Aug ? 17:22:01 10° NW 17:29:21 80° SW 17:30:57 56° SSE visible
26 Aug ? 16:59:49 10° NW 17:07:12 78° SW 17:10:41 32° SE visible
26 Aug ? 18:50:46 10° WSW 18:52:06 13° WSW 18:52:06 13° WSW visible
27 Aug ? 16:37:38 10° NW 16:45:01 76° SW 16:50:28 18° SE visible
27 Aug ? 18:28:37 10° WSW 18:31:52 15° SW 18:31:52 15° SW visible
28 Aug ? 16:15:28 10° NW 16:22:50 75° SW 16:29:55 10° SE visible
28 Aug ? 18:06:29 10° WSW 18:10:15 15° SW 18:11:41 14° SSW visible
29 Aug ? 15:53:19 10° NW 16:00:39 73° SW 16:07:49 10° SE visible
29 Aug ? 17:44:22 10° WSW 17:48:08 15° SW 17:51:30 11° S visible
30 Aug ? 02:54:10 10° S 02:57:06 19° SE 03:00:02 10° E visible
30 Aug ? 17:22:16 10° WSW 17:26:00 15° SW 17:29:39 10° S visible
31 Aug ? 02:32:08 10° S 02:35:11 20° SE 02:38:11 10° E visible
31 Aug ? 17:00:11 10° WSW 17:03:52 14° SW 17:07:29 10° S visible
01 Sep ? 02:10:43 13° S 02:13:15 21° SE 02:16:21 10° E visible
01 Sep ? 16:38:08 10° WSW 16:41:43 14° SW 16:45:16 10° S visible
